Weather in Pieksamaki

Finland     62°18′06″N   27°09′54″E
temp.,
°C
wind,
m/s
gust,
m/s
humid.,
%
clouds,
%
prec.,
mm/h
press.,
hPa
HPBL,
m
8 may, sat
sat800:00+2ne1198100 0.3 1003315
03:00+2nne2499100 1.4 1004220
06:00+1nne2499100 1.1 1004134
09:00+2nne258992 1.5 1005430
12:00+6nne4555100 0.1 10041455
15:00+8n364299 0.1 10041982
18:00+9nw363798 0.0 10042282
21:00+5wnw2355100 0.0 100661
9 may, sun
sun900:00+4nw386654 0.1 1007225
03:000wnw26775 0.1 1010105
06:00+1wsw39675 0.0 1011262
09:00+7w47470 0.0 1012766
12:00+10sw473270 0.0 10122522
15:00+8sw565396 0.0 10131280
18:00+9sw4763100 0.2 10121229
21:00+7ssw310759 0.8 1013396
10 may, mon
mon1000:00+4ssw31089100 0.0 1014337
03:00+3ssw288889 0.0 1015229
06:00+4sse4985100 0.0 1015798
09:00+5sse41094100 0.3 1014631
12:00+6s3996100 0.3 1014453
15:00+8s31298100 2.0 1014535
18:00+11ssw51394100 0.3 1015640
21:00+10s31296100 0.9 1015523
11 may, tue
tue1100:00+10ssw51791100 0.0 1015779
03:00+10ssw51792100 0.0 1016666
06:00+10ssw41396100 0.0 1017436
09:00+14ssw51284100 0.0 1017598
12:00+17ssw61068100 0.0 1018935
15:00+19ssw61058100 0.0 10181288
18:00+19ssw51061100 0.0 10181258
21:00+16s4117369 0.0 1019420
12 may, wed
wed1200:00+12s3108230 0.0 1020254
03:00+9s2989100 0.0 1021203
06:00+10s310850 0.0 1021253
09:00+15ssw37610 0.0 1021517
12:00+20ssw47445 0.0 10211259
15:00+22ssw57376 0.0 10211480
18:00+21s46365 0.0 10211364
21:00+15sse25626 0.0 102289